Time,TemperatureF,DewpointF,PressureIn,WindDirection,WindDirectionDegrees,WindSpeedMPH,WindSpeedGustMPH,Humidity,HourlyPrecipIn,Conditions,Clouds,dailyrainin,SoftwareType,DateUTC
2013-08-21 00:00:00,68.6,56.9,29.74,SE,133,2.4,6.2,65,-99.99,n/a,n/a,-99.99,Henriksen +1-Wire,2013-08-21 07:00:00,
2013-08-21 00:06:00,68.5,56.8,29.74,SE,131,3.3,5.4,65,-99.99,n/a,n/a,-99.99,Henriksen +1-Wire,2013-08-21 07:06:00,
2013-08-21 00:12:00,68.4,56.7,29.74,SE,126,1.9,7.8,65,-99.99,n/a,n/a,-99.99,Henriksen +1-Wire,2013-08-21 07:12:00,
2013-08-21 00:18:00,68.4,56.7,29.74,SE,126,3.8,7.8,66,-99.99,n/a,n/a,-99.99,Henriksen +1-Wire,2013-08-21 07:18:00,
2013-08-21 00:24:00,68.3,56.7,29.74,SE,139,3.0,6.2,66,-99.99,n/a,n/a,-99.99,Henriksen +1-Wire,2013-08-21 07:24:00,
2013-08-21 00:30:00,68.1,56.5,29.74,SE,141,4.2,10.8,65,-99.99,n/a,n/a,-99.99,Henriksen +1-Wire,2013-08-21 07:30:00,
2013-08-21 00:36:00,68.0,56.3,29.75,SSE,147,3.0,10.8,65,-99.99,n/a,n/a,-99.99,Henriksen +1-Wire,2013-08-21 07:36:00,
2013-08-21 00:42:00,67.8,56.1,29.75,SE,128,4.4,9.3,65,-99.99,n/a,n/a,-99.99,Henriksen +1-Wire,2013-08-21 07:42:00,
2013-08-21 00:48:00,67.5,55.9,29.75,SE,138,2.6,9.3,65,-99.99,n/a,n/a,-99.99,Henriksen +1-Wire,2013-08-21 07:48:00,
2013-08-21 00:54:00,67.3,55.7,29.75,SE,132,1.1,7.0,66,-99.99,n/a,n/a,-99.99,Henriksen +1-Wire,2013-08-21 07:54:00,
2013-08-21 01:00:00,67.2,55.8,29.75,SE,128,1.1,5.4,66,-99.99,n/a,n/a,-99.99,Henriksen +1-Wire,2013-08-21 08:00:00,
2013-08-21 01:06:00,67.1,55.8,29.75,SE,125,2.0,6.2,66,-99.99,n/a,n/a,-99.99,Henriksen +1-Wire,2013-08-21 08:06:00,
2013-08-21 01:12:00,67.0,55.8,29.75,SE,128,3.0,6.9,67,-99.99,n/a,n/a,-99.99,Henriksen +1-Wire,2013-08-21 08:12:00,
2013-08-21 01:18:00,66.8,55.7,29.75,SE,125,3.5,6.2,67,-99.99,n/a,n/a,-99.99,Henriksen +1-Wire,2013-08-21 08:18:00,
2013-08-21 01:24:00,66.6,55.6,29.77,SE,132,1.6,5.6,67,-99.99,n/a,n/a,-99.99,Henriksen +1-Wire,2013-08-21 08:24:00,
2013-08-21 01:30:00,66.5,55.6,29.79,SE,130,2.6,5.4,67,-99.99,n/a,n/a,-99.99,Henriksen +1-Wire,2013-08-21 08:30:00,
2013-08-21 01:36:00,66.5,55.8,29.79,SE,135,3.3,7.0,68,-99.99,n/a,n/a,-99.99,Henriksen +1-Wire,2013-08-21 08:36:00,
2013-08-21 01:42:00,66.4,55.8,29.79,ESE,102,3.0,7.0,68,-99.99,n/a,n/a,-99.99,Henriksen +1-Wire,2013-08-21 08:42:00,
2013-08-21 01:48:00,66.3,55.9,29.78,ESE,106,3.2,7.0,68,-99.99,n/a,n/a,-99.99,Henriksen +1-Wire,2013-08-21 08:48:00,
2013-08-21 01:54:00,66.2,55.9,29.78,SE,135,3.8,10.1,69,-99.99,n/a,n/a,-99.99,Henriksen +1-Wire,2013-08-21 08:54:00,
2013-08-21 02:00:00,66.0,56.0,29.79,ESE,121,2.5,10.1,69,-99.99,n/a,n/a,-99.99,Henriksen +1-Wire,2013-08-21 09:00:00,
2013-08-21 02:06:00,65.8,56.2,29.78,SE,135,3.4,6.2,70,-99.99,n/a,n/a,-99.99,Henriksen +1-Wire,2013-08-21 09:06:00,
2013-08-21 02:12:00,65.6,56.3,29.78,ESE,110,2.9,7.8,71,-99.99,n/a,n/a,-99.99,Henriksen +1-Wire,2013-08-21 09:12:00,
2013-08-21 02:18:00,65.4,56.3,29.79,SE,125,3.9,7.8,72,-99.99,n/a,n/a,-99.99,Henriksen +1-Wire,2013-08-21 09:18:00,
2013-08-21 02:24:00,65.2,56.3,29.79,SE,134,4.1,9.3,72,-99.99,n/a,n/a,-99.99,Henriksen +1-Wire,2013-08-21 09:24:00,
2013-08-21 02:30:00,65.1,56.4,29.79,SE,133,4.2,7.8,73,-99.99,n/a,n/a,-99.99,Henriksen +1-Wire,2013-08-21 09:30:00,
2013-08-21 02:36:00,64.9,56.4,29.78,SE,132,1.7,7.8,73,-99.99,n/a,n/a,-99.99,Henriksen +1-Wire,2013-08-21 09:36:00,
2013-08-21 02:42:00,64.8,56.4,29.79,SE,124,1.8,7.0,74,-99.99,n/a,n/a,-99.99,Henriksen +1-Wire,2013-08-21 09:42:00,
2013-08-21 02:48:00,64.6,56.4,29.79,ESE,122,2.1,4.7,74,-99.99,n/a,n/a,-99.99,Henriksen +1-Wire,2013-08-21 09:48:00,
2013-08-21 02:54:00,64.5,56.5,29.78,SE,135,3.0,6.2,74,-99.99,n/a,n/a,-99.99,Henriksen +1-Wire,2013-08-21 09:54:00,
2013-08-21 03:00:00,64.4,56.4,29.79,ESE,123,1.3,6.2,75,-99.99,n/a,n/a,-99.99,Henriksen +1-Wire,2013-08-21 10:00:00,
2013-08-21 03:06:00,64.3,56.5,29.79,SE,140,2.3,4.5,75,-99.99,n/a,n/a,-99.99,Henriksen +1-Wire,2013-08-21 10:06:00,
2013-08-21 03:12:00,64.3,56.6,29.80,East,95,3.0,6.2,75,-99.99,n/a,n/a,-99.99,Henriksen +1-Wire,2013-08-21 10:12:00,
2013-08-21 03:18:00,64.2,56.7,29.79,ESE,119,1.6,6.2,76,-99.99,n/a,n/a,-99.99,Henriksen +1-Wire,2013-08-21 10:18:00,
2013-08-21 03:24:00,64.0,56.6,29.79,ESE,113,2.2,4.6,76,-99.99,n/a,n/a,-99.99,Henriksen +1-Wire,2013-08-21 10:24:00,
2013-08-21 03:30:00,63.9,56.6,29.80,ESE,109,2.5,5.4,76,-99.99,n/a,n/a,-99.99,Henriksen +1-Wire,2013-08-21 10:30:00,
2013-08-21 03:36:00,63.8,56.6,29.80,ESE,102,2.5,5.4,77,-99.99,n/a,n/a,-99.99,Henriksen +1-Wire,2013-08-21 10:36:00,
2013-08-21 03:42:00,63.7,56.5,29.80,East,100,2.1,6.2,77,-99.99,n/a,n/a,-99.99,Henriksen +1-Wire,2013-08-21 10:42:00,
2013-08-21 03:48:00,63.5,56.5,29.79,ESE,114,2.3,6.2,77,-99.99,n/a,n/a,-99.99,Henriksen +1-Wire,2013-08-21 10:48:00,
2013-08-21 03:54:00,63.4,56.4,29.80,ESE,117,2.0,5.4,77,-99.99,n/a,n/a,-99.99,Henriksen +1-Wire,2013-08-21 10:54:00,
2013-08-21 04:00:00,63.3,56.4,29.80,ESE,110,2.9,5.4,77,-99.99,n/a,n/a,-99.99,Henriksen +1-Wire,2013-08-21 11:00:00,
2013-08-21 04:06:00,63.1,56.4,29.80,ESE,118,1.6,7.0,78,-99.99,n/a,n/a,-99.99,Henriksen +1-Wire,2013-08-21 11:06:00,
2013-08-21 04:12:00,63.0,56.4,29.79,ESE,111,3.5,7.0,78,-99.99,n/a,n/a,-99.99,Henriksen +1-Wire,2013-08-21 11:12:00,
2013-08-21 04:18:00,62.8,56.4,29.80,ESE,107,3.4,7.8,79,-99.99,n/a,n/a,-99.99,Henriksen +1-Wire,2013-08-21 11:18:00,
2013-08-21 04:24:00,62.7,56.3,29.80,SE,126,3.9,7.8,79,-99.99,n/a,n/a,-99.99,Henriksen +1-Wire,2013-08-21 11:24:00,
2013-08-21 04:30:00,62.6,56.4,29.80,SE,126,3.4,7.7,79,-99.99,n/a,n/a,-99.99,Henriksen +1-Wire,2013-08-21 11:30:00,
2013-08-21 04:36:00,62.5,56.5,29.80,ESE,121,1.4,7.0,80,-99.99,n/a,n/a,-99.99,Henriksen +1-Wire,2013-08-21 11:36:00,
2013-08-21 04:42:00,62.4,56.6,29.80,SSE,151,2.5,5.4,80,-99.99,n/a,n/a,-99.99,Henriksen +1-Wire,2013-08-21 11:42:00,
2013-08-21 04:48:00,62.4,56.6,29.80,SE,139,3.9,7.0,80,-99.99,n/a,n/a,-99.99,Henriksen +1-Wire,2013-08-21 11:48:00,
2013-08-21 04:54:00,62.4,56.6,29.80,SE,135,3.2,7.0,81,-99.99,n/a,n/a,-99.99,Henriksen +1-Wire,2013-08-21 11:54:00,
2013-08-21 05:00:00,62.3,56.5,29.80,SE,130,3.4,7.0,80,-99.99,n/a,n/a,-99.99,Henriksen +1-Wire,2013-08-21 12:00:00,
2013-08-21 05:06:00,62.2,56.3,29.80,SE,128,3.8,6.2,80,-99.99,n/a,n/a,-99.99,Henriksen +1-Wire,2013-08-21 12:06:00,
2013-08-21 05:12:00,62.2,56.2,29.80,East,101,2.7,6.2,80,-99.99,n/a,n/a,-99.99,Henriksen +1-Wire,2013-08-21 12:12:00,
2013-08-21 05:18:00,62.1,56.2,29.80,SE,126,2.1,6.2,80,-99.99,n/a,n/a,-99.99,Henriksen +1-Wire,2013-08-21 12:18:00,
2013-08-21 05:24:00,62.0,56.1,29.79,SE,136,3.4,6.2,80,-99.99,n/a,n/a,-99.99,Henriksen +1-Wire,2013-08-21 12:24:00,
2013-08-21 05:30:00,62.0,56.1,29.80,SE,134,1.6,6.2,80,-99.99,n/a,n/a,-99.99,Henriksen +1-Wire,2013-08-21 12:30:00,
2013-08-21 05:36:00,61.9,56.1,29.80,SE,132,2.6,5.4,81,-99.99,n/a,n/a,-99.99,Henriksen +1-Wire,2013-08-21 12:36:00,
2013-08-21 05:42:00,61.8,56.2,29.80,SE,129,2.4,7.0,81,-99.99,n/a,n/a,-99.99,Henriksen +1-Wire,2013-08-21 12:42:00,
2013-08-21 05:48:00,61.8,56.3,29.80,SE,132,2.7,7.4,82,-99.99,n/a,n/a,-99.99,Henriksen +1-Wire,2013-08-21 12:48:00,
2013-08-21 05:54:00,61.7,56.4,29.81,SE,146,4.3,9.3,82,-99.99,n/a,n/a,-99.99,Henriksen +1-Wire,2013-08-21 12:54:00,
2013-08-21 06:00:00,61.7,56.5,29.81,SE,142,3.8,9.3,83,-99.99,n/a,n/a,-99.99,Henriksen +1-Wire,2013-08-21 13:00:00,
2013-08-21 06:06:00,61.6,56.6,29.81,SE,138,1.8,9.3,83,-99.99,n/a,n/a,-99.99,Henriksen +1-Wire,2013-08-21 13:06:00,
2013-08-21 06:12:00,61.5,56.5,29.81,ESE,112,2.5,5.4,83,-99.99,n/a,n/a,-99.99,Henriksen +1-Wire,2013-08-21 13:12:00,
2013-08-21 06:18:00,61.4,56.6,29.81,SE,139,2.9,6.2,84,-99.99,n/a,n/a,-99.99,Henriksen +1-Wire,2013-08-21 13:18:00,
2013-08-21 06:24:00,61.3,56.6,29.82,SE,139,4.2,8.5,84,-99.99,n/a,n/a,-99.99,Henriksen +1-Wire,2013-08-21 13:24:00,
2013-08-21 06:30:00,61.2,56.6,29.82,SE,133,3.1,7.0,84,-99.99,n/a,n/a,-99.99,Henriksen +1-Wire,2013-08-21 13:30:00,
2013-08-21 06:36:00,61.1,56.7,29.81,SE,134,5.1,9.3,85,-99.99,n/a,n/a,-99.99,Henriksen +1-Wire,2013-08-21 13:36:00,
2013-08-21 06:42:00,61.1,56.8,29.81,SSE,152,2.7,9.3,85,-99.99,n/a,n/a,-99.99,Henriksen +1-Wire,2013-08-21 13:42:00,
2013-08-21 06:48:00,61.1,56.9,29.82,SE,142,2.7,7.8,86,-99.99,n/a,n/a,-99.99,Henriksen +1-Wire,2013-08-21 13:48:00,
2013-08-21 06:54:00,61.1,56.9,29.82,SE,130,3.5,8.5,86,-99.99,n/a,n/a,-99.99,Henriksen +1-Wire,2013-08-21 13:54:00,
2013-08-21 07:00:00,61.1,57.0,29.83,SE,135,4.2,8.5,86,-99.99,n/a,n/a,-99.99,Henriksen +1-Wire,2013-08-21 14:00:00,
2013-08-21 07:06:00,61.1,57.2,29.83,SE,137,2.8,8.5,86,-99.99,n/a,n/a,-99.99,Henriksen +1-Wire,2013-08-21 14:06:00,
2013-08-21 07:12:00,61.1,57.2,29.83,SE,145,1.5,7.0,86,-99.99,n/a,n/a,-99.99,Henriksen +1-Wire,2013-08-21 14:12:00,
2013-08-21 07:18:00,61.2,57.1,29.83,SE,146,4.2,7.8,86,-99.99,n/a,n/a,-99.99,Henriksen +1-Wire,2013-08-21 14:18:00,
2013-08-21 07:24:00,61.2,57.0,29.83,SSE,147,2.4,7.0,85,-99.99,n/a,n/a,-99.99,Henriksen +1-Wire,2013-08-21 14:24:00,
2013-08-21 07:30:00,61.4,57.1,29.83,SE,142,3.0,7.0,85,-99.99,n/a,n/a,-99.99,Henriksen +1-Wire,2013-08-21 14:30:00,
2013-08-21 07:36:00,61.5,57.1,29.83,SE,143,2.3,8.5,85,-99.99,n/a,n/a,-99.99,Henriksen +1-Wire,2013-08-21 14:36:00,
2013-08-21 07:42:00,61.6,57.0,29.84,South,176,1.5,9.2,84,-99.99,n/a,n/a,-99.99,Henriksen +1-Wire,2013-08-21 14:42:00,
2013-08-21 07:48:00,61.8,57.1,29.84,SE,141,4.2,8.5,84,-99.99,n/a,n/a,-99.99,Henriksen +1-Wire,2013-08-21 14:48:00,
2013-08-21 07:54:00,61.8,57.0,29.84,SE,136,3.4,10.0,83,-99.99,n/a,n/a,-99.99,Henriksen +1-Wire,2013-08-21 14:54:00,
2013-08-21 08:00:00,61.9,56.9,29.84,SE,134,4.9,9.2,83,-99.99,n/a,n/a,-99.99,Henriksen +1-Wire,2013-08-21 15:00:00,
2013-08-21 08:06:00,62.1,56.9,29.84,SE,144,2.4,8.5,82,-99.99,n/a,n/a,-99.99,Henriksen +1-Wire,2013-08-21 15:06:00,
2013-08-21 08:12:00,62.3,57.0,29.84,SE,134,5.1,8.1,82,-99.99,n/a,n/a,-99.99,Henriksen +1-Wire,2013-08-21 15:12:00,
2013-08-21 08:18:00,62.5,57.2,29.85,SE,139,3.1,8.5,82,-99.99,n/a,n/a,-99.99,Henriksen +1-Wire,2013-08-21 15:18:00,
2013-08-21 08:24:00,62.8,57.5,29.85,SE,145,4.4,8.5,82,-99.99,n/a,n/a,-99.99,Henriksen +1-Wire,2013-08-21 15:24:00,
2013-08-21 08:30:00,63.0,57.5,29.85,SSE,168,4.1,9.1,82,-99.99,n/a,n/a,-99.99,Henriksen +1-Wire,2013-08-21 15:30:00,
2013-08-21 08:36:00,63.5,57.8,29.86,SSE,167,4.6,10.0,81,-99.99,n/a,n/a,-99.99,Henriksen +1-Wire,2013-08-21 15:36:00,
2013-08-21 08:42:00,64.1,58.0,29.85,SSE,164,5.0,10.1,80,-99.99,n/a,n/a,-99.99,Henriksen +1-Wire,2013-08-21 15:42:00,
2013-08-21 08:48:00,64.2,57.7,29.85,SE,143,4.8,10.0,79,-99.99,n/a,n/a,-99.99,Henriksen +1-Wire,2013-08-21 15:48:00,
2013-08-21 08:54:00,64.3,57.6,29.85,SE,145,5.0,10.1,78,-99.99,n/a,n/a,-99.99,Henriksen +1-Wire,2013-08-21 15:54:00,
2013-08-21 09:00:00,64.6,57.7,29.86,SE,140,5.0,11.5,78,-99.99,n/a,n/a,-99.99,Henriksen +1-Wire,2013-08-21 16:00:00,
2013-08-21 09:06:00,65.1,57.9,29.86,SE,143,3.6,9.3,77,-99.99,n/a,n/a,-99.99,Henriksen +1-Wire,2013-08-21 16:06:00,
2013-08-21 09:12:00,65.4,58.0,29.86,SE,132,5.4,9.3,76,-99.99,n/a,n/a,-99.99,Henriksen +1-Wire,2013-08-21 16:12:00,
2013-08-21 09:18:00,65.8,58.0,29.85,SE,129,5.8,10.0,75,-99.99,n/a,n/a,-99.99,Henriksen +1-Wire,2013-08-21 16:18:00,
2013-08-21 09:24:00,66.5,58.5,29.85,SE,126,4.3,9.3,75,-99.99,n/a,n/a,-99.99,Henriksen +1-Wire,2013-08-21 16:24:00,
2013-08-21 09:30:00,66.9,58.4,29.86,SE,130,4.7,7.8,73,-99.99,n/a,n/a,-99.99,Henriksen +1-Wire,2013-08-21 16:30:00,
2013-08-21 09:36:00,67.2,58.3,29.86,SE,142,4.8,10.1,72,-99.99,n/a,n/a,-99.99,Henriksen +1-Wire,2013-08-21 16:36:00,
2013-08-21 09:42:00,67.5,58.4,29.86,South,170,4.1,10.1,72,-99.99,n/a,n/a,-99.99,Henriksen +1-Wire,2013-08-21 16:42:00,
2013-08-21 09:48:00,68.1,58.8,29.85,South,174,2.7,10.1,71,-99.99,n/a,n/a,-99.99,Henriksen +1-Wire,2013-08-21 16:48:00,
2013-08-21 09:54:00,68.5,58.8,29.85,South,182,5.3,10.0,70,-99.99,n/a,n/a,-99.99,Henriksen +1-Wire,2013-08-21 16:54:00,
2013-08-21 10:00:00,68.7,58.6,29.86,South,174,4.4,10.1,69,-99.99,n/a,n/a,-99.99,Henriksen +1-Wire,2013-08-21 17:00:00,
2013-08-21 10:06:00,69.2,58.8,29.87,South,176,4.6,10.1,69,-99.99,n/a,n/a,-99.99,Henriksen +1-Wire,2013-08-21 17:06:00,
2013-08-21 10:12:00,69.6,59.1,29.86,SW,217,3.4,10.1,68,-99.99,n/a,n/a,-99.99,Henriksen +1-Wire,2013-08-21 17:12:00,
2013-08-21 10:18:00,69.6,58.7,29.86,South,173,5.8,10.9,67,-99.99,n/a,n/a,-99.99,Henriksen +1-Wire,2013-08-21 17:18:00,
2013-08-21 10:24:00,69.8,58.6,29.86,South,182,4.0,10.9,67,-99.99,n/a,n/a,-99.99,Henriksen +1-Wire,2013-08-21 17:24:00,
2013-08-21 10:30:00,70.0,58.6,29.87,SE,144,5.1,9.3,66,-99.99,n/a,n/a,-99.99,Henriksen +1-Wire,2013-08-21 17:30:00,
2013-08-21 10:36:00,70.5,58.9,29.87,South,185,3.1,9.3,66,-99.99,n/a,n/a,-99.99,Henriksen +1-Wire,2013-08-21 17:36:00,
2013-08-21 10:42:00,71.1,59.1,29.86,SSE,148,3.5,8.5,65,-99.99,n/a,n/a,-99.99,Henriksen +1-Wire,2013-08-21 17:42:00,
2013-08-21 10:48:00,71.6,59.3,29.86,South,171,4.1,8.5,64,-99.99,n/a,n/a,-99.99,Henriksen +1-Wire,2013-08-21 17:48:00,
2013-08-21 10:54:00,72.0,59.3,29.87,South,174,3.2,8.7,63,-99.99,n/a,n/a,-99.99,Henriksen +1-Wire,2013-08-21 17:54:00,
2013-08-21 11:00:00,72.2,59.3,29.87,South,181,4.3,8.6,63,-99.99,n/a,n/a,-99.99,Henriksen +1-Wire,2013-08-21 18:00:00,
2013-08-21 11:06:00,72.7,59.5,29.86,SE,138,4.2,11.7,62,-99.99,n/a,n/a,-99.99,Henriksen +1-Wire,2013-08-21 18:06:00,
2013-08-21 11:12:00,73.1,59.6,29.87,SE,124,4.3,10.1,62,-99.99,n/a,n/a,-99.99,Henriksen +1-Wire,2013-08-21 18:12:00,
2013-08-21 11:18:00,73.6,59.8,29.87,SE,132,2.8,7.9,61,-99.99,n/a,n/a,-99.99,Henriksen +1-Wire,2013-08-21 18:18:00,
2013-08-21 11:24:00,73.9,59.7,29.87,SE,126,3.9,7.8,60,-99.99,n/a,n/a,-99.99,Henriksen +1-Wire,2013-08-21 18:24:00,
2013-08-21 11:30:00,74.6,60.1,29.86,SE,138,3.7,10.1,60,-99.99,n/a,n/a,-99.99,Henriksen +1-Wire,2013-08-21 18:30:00,
2013-08-21 11:36:00,74.7,59.8,29.86,SE,145,3.2,10.1,59,-99.99,n/a,n/a,-99.99,Henriksen +1-Wire,2013-08-21 18:36:00,
2013-08-21 11:42:00,74.9,59.8,29.87,SE,126,3.8,8.3,58,-99.99,n/a,n/a,-99.99,Henriksen +1-Wire,2013-08-21 18:42:00,
2013-08-21 11:48:00,75.3,60.0,29.87,SE,131,3.7,9.3,58,-99.99,n/a,n/a,-99.99,Henriksen +1-Wire,2013-08-21 18:48:00,
2013-08-21 11:54:00,75.8,60.1,29.86,South,191,3.6,9.3,57,-99.99,n/a,n/a,-99.99,Henriksen +1-Wire,2013-08-21 18:54:00,
2013-08-21 12:00:00,76.7,60.5,29.86,SW,220,4.1,7.8,56,-99.99,n/a,n/a,-99.99,Henriksen +1-Wire,2013-08-21 19:00:00,
2013-08-21 12:06:00,76.9,60.3,29.87,South,188,4.0,8.5,56,-99.99,n/a,n/a,-99.99,Henriksen +1-Wire,2013-08-21 19:06:00,
2013-08-21 12:12:00,77.1,60.3,29.87,South,175,3.1,7.0,55,-99.99,n/a,n/a,-99.99,Henriksen +1-Wire,2013-08-21 19:12:00,
2013-08-21 12:18:00,77.4,60.4,29.86,South,186,4.3,7.8,55,-99.99,n/a,n/a,-99.99,Henriksen +1-Wire,2013-08-21 19:18:00,
2013-08-21 12:24:00,77.6,60.2,29.86,South,178,2.5,8.5,54,-99.99,n/a,n/a,-99.99,Henriksen +1-Wire,2013-08-21 19:24:00,
2013-08-21 12:30:00,77.9,60.2,29.86,South,173,3.8,7.7,53,-99.99,n/a,n/a,-99.99,Henriksen +1-Wire,2013-08-21 19:30:00,
2013-08-21 12:36:00,78.4,60.5,29.86,South,183,3.7,7.8,53,-99.99,n/a,n/a,-99.99,Henriksen +1-Wire,2013-08-21 19:36:00,
2013-08-21 12:42:00,78.9,60.8,29.86,SSW,208,4.6,7.8,53,-99.99,n/a,n/a,-99.99,Henriksen +1-Wire,2013-08-21 19:42:00,
2013-08-21 12:48:00,79.1,60.8,29.85,SW,222,3.3,9.0,52,-99.99,n/a,n/a,-99.99,Henriksen +1-Wire,2013-08-21 19:48:00,
2013-08-21 12:54:00,79.6,61.0,29.85,SW,219,2.0,9.0,52,-99.99,n/a,n/a,-99.99,Henriksen +1-Wire,2013-08-21 19:54:00,
2013-08-21 13:00:00,80.1,61.0,29.86,South,172,2.1,7.7,51,-99.99,n/a,n/a,-99.99,Henriksen +1-Wire,2013-08-21 20:00:00,
2013-08-21 13:06:00,80.7,61.2,29.85,SE,137,3.1,6.2,51,-99.99,n/a,n/a,-99.99,Henriksen +1-Wire,2013-08-21 20:06:00,
2013-08-21 13:12:00,81.2,61.4,29.84,SW,216,4.1,7.7,50,-99.99,n/a,n/a,-99.99,Henriksen +1-Wire,2013-08-21 20:12:00,
2013-08-21 13:18:00,81.5,61.3,29.85,SW,217,1.8,7.7,49,-99.99,n/a,n/a,-99.99,Henriksen +1-Wire,2013-08-21 20:18:00,
2013-08-21 13:24:00,82.2,61.4,29.84,SE,137,3.3,6.6,48,-99.99,n/a,n/a,-99.99,Henriksen +1-Wire,2013-08-21 20:24:00,
2013-08-21 13:30:00,82.6,61.1,29.84,SW,222,4.0,7.8,47,-99.99,n/a,n/a,-99.99,Henriksen +1-Wire,2013-08-21 20:30:00,
2013-08-21 13:36:00,83.1,60.9,29.84,SW,217,3.5,7.8,46,-99.99,n/a,n/a,-99.99,Henriksen +1-Wire,2013-08-21 20:36:00,
2013-08-21 13:42:00,83.6,60.6,29.84,WSW,238,3.1,9.1,45,-99.99,n/a,n/a,-99.99,Henriksen +1-Wire,2013-08-21 20:42:00,
2013-08-21 13:48:00,83.9,60.1,29.83,SW,231,4.8,10.9,44,-99.99,n/a,n/a,-99.99,Henriksen +1-Wire,2013-08-21 20:48:00,
2013-08-21 13:54:00,84.0,59.7,29.83,SW,214,1.9,10.9,43,-99.99,n/a,n/a,-99.99,Henriksen +1-Wire,2013-08-21 20:54:00,
2013-08-21 14:00:00,84.6,59.8,29.84,SW,220,4.4,7.8,42,-99.99,n/a,n/a,-99.99,Henriksen +1-Wire,2013-08-21 21:00:00,
2013-08-21 14:06:00,84.9,59.4,29.83,SW,217,4.1,7.8,41,-99.99,n/a,n/a,-99.99,Henriksen +1-Wire,2013-08-21 21:06:00,
2013-08-21 14:12:00,85.1,59.3,29.83,South,178,3.0,6.9,41,-99.99,n/a,n/a,-99.99,Henriksen +1-Wire,2013-08-21 21:12:00,
2013-08-21 14:18:00,85.6,59.6,29.83,South,186,4.8,7.8,40,-99.99,n/a,n/a,-99.99,Henriksen +1-Wire,2013-08-21 21:18:00,
2013-08-21 14:24:00,86.0,59.5,29.83,SW,232,2.5,7.8,40,-99.99,n/a,n/a,-99.99,Henriksen +1-Wire,2013-08-21 21:24:00,
2013-08-21 14:30:00,86.2,59.2,29.82,SW,220,1.6,7.8,39,-99.99,n/a,n/a,-99.99,Henriksen +1-Wire,2013-08-21 21:30:00,
2013-08-21 14:36:00,86.4,59.1,29.83,South,183,3.0,7.8,39,-99.99,n/a,n/a,-99.99,Henriksen +1-Wire,2013-08-21 21:36:00,
2013-08-21 14:42:00,86.5,58.4,29.82,SW,214,4.6,10.1,38,-99.99,n/a,n/a,-99.99,Henriksen +1-Wire,2013-08-21 21:42:00,
2013-08-21 14:48:00,86.6,57.9,29.82,SW,216,3.5,10.1,37,-99.99,n/a,n/a,-99.99,Henriksen +1-Wire,2013-08-21 21:48:00,
2013-08-21 14:54:00,86.8,58.1,29.82,SW,221,2.7,9.6,37,-99.99,n/a,n/a,-99.99,Henriksen +1-Wire,2013-08-21 21:54:00,
2013-08-21 15:00:00,87.0,58.4,29.82,SW,219,3.7,9.6,37,-99.99,n/a,n/a,-99.99,Henriksen +1-Wire,2013-08-21 22:00:00,
2013-08-21 15:06:00,87.1,59.0,29.81,SSW,212,3.2,7.8,38,-99.99,n/a,n/a,-99.99,Henriksen +1-Wire,2013-08-21 22:06:00,
2013-08-21 15:12:00,87.1,58.8,29.82,SE,146,4.2,8.4,37,-99.99,n/a,n/a,-99.99,Henriksen +1-Wire,2013-08-21 22:12:00,
2013-08-21 15:18:00,87.2,58.4,29.81,South,186,2.3,7.5,37,-99.99,n/a,n/a,-99.99,Henriksen +1-Wire,2013-08-21 22:18:00,
2013-08-21 15:24:00,87.2,57.5,29.80,SSW,213,3.6,7.7,36,-99.99,n/a,n/a,-99.99,Henriksen +1-Wire,2013-08-21 22:24:00,
2013-08-21 15:30:00,87.6,57.2,29.80,SW,220,1.3,7.7,35,-99.99,n/a,n/a,-99.99,Henriksen +1-Wire,2013-08-21 22:30:00,
2013-08-21 15:36:00,88.0,56.9,29.80,SW,224,3.9,7.8,34,-99.99,n/a,n/a,-99.99,Henriksen +1-Wire,2013-08-21 22:36:00,
2013-08-21 15:42:00,88.1,56.6,29.80,SW,226,1.9,8.5,33,-99.99,n/a,n/a,-99.99,Henriksen +1-Wire,2013-08-21 22:42:00,
2013-08-21 15:48:00,88.3,56.3,29.79,South,186,1.2,8.5,33,-99.99,n/a,n/a,-99.99,Henriksen +1-Wire,2013-08-21 22:48:00,
2013-08-21 15:54:00,88.9,56.4,29.79,SW,230,1.5,6.2,32,-99.99,n/a,n/a,-99.99,Henriksen +1-Wire,2013-08-21 22:54:00,
2013-08-21 16:00:00,89.3,56.5,29.79,SW,219,1.9,7.7,32,-99.99,n/a,n/a,-99.99,Henriksen +1-Wire,2013-08-21 23:00:00,
2013-08-21 16:06:00,89.2,56.1,29.80,SW,217,1.2,5.4,32,-99.99,n/a,n/a,-99.99,Henriksen +1-Wire,2013-08-21 23:06:00,
2013-08-21 16:12:00,89.6,56.2,29.80,South,174,0.8,3.9,31,-99.99,n/a,n/a,-99.99,Henriksen +1-Wire,2013-08-21 23:12:00,
2013-08-21 16:18:00,89.9,56.5,29.79,SW,217,2.0,7.0,31,-99.99,n/a,n/a,-99.99,Henriksen +1-Wire,2013-08-21 23:18:00,
2013-08-21 16:24:00,89.9,56.2,29.79,SSW,194,4.5,7.0,31,-99.99,n/a,n/a,-99.99,Henriksen +1-Wire,2013-08-21 23:24:00,
2013-08-21 16:30:00,89.9,55.8,29.80,SW,217,2.1,10.7,30,-99.99,n/a,n/a,-99.99,Henriksen +1-Wire,2013-08-21 23:30:00,
2013-08-21 16:36:00,89.9,55.7,29.79,South,191,1.0,5.4,30,-99.99,n/a,n/a,-99.99,Henriksen +1-Wire,2013-08-21 23:36:00,
2013-08-21 16:42:00,89.7,55.4,29.80,SW,217,3.8,8.5,30,-99.99,n/a,n/a,-99.99,Henriksen +1-Wire,2013-08-21 23:42:00,
2013-08-21 16:48:00,89.6,55.1,29.80,South,190,2.8,7.0,30,-99.99,n/a,n/a,-99.99,Henriksen +1-Wire,2013-08-21 23:48:00,
2013-08-21 16:54:00,89.8,55.1,29.79,SW,232,2.1,7.0,30,-99.99,n/a,n/a,-99.99,Henriksen +1-Wire,2013-08-21 23:54:00,
2013-08-21 17:00:00,89.8,54.8,29.80,SW,225,3.3,6.9,29,-99.99,n/a,n/a,-99.99,Henriksen +1-Wire,2013-08-22 00:00:00,
2013-08-21 17:06:00,90.0,54.7,29.79,WSW,245,2.0,6.9,29,-99.99,n/a,n/a,-99.99,Henriksen +1-Wire,2013-08-22 00:06:00,
2013-08-21 17:12:00,90.1,54.7,29.80,West,263,2.2,6.2,29,-99.99,n/a,n/a,-99.99,Henriksen +1-Wire,2013-08-22 00:12:00,
2013-08-21 17:18:00,90.2,54.4,29.80,SW,228,2.1,5.4,29,-99.99,n/a,n/a,-99.99,Henriksen +1-Wire,2013-08-22 00:18:00,
2013-08-21 17:24:00,90.2,54.3,29.79,WSW,253,3.2,7.0,29,-99.99,n/a,n/a,-99.99,Henriksen +1-Wire,2013-08-22 00:24:00,
2013-08-21 17:30:00,90.1,54.2,29.80,SW,228,1.3,7.0,29,-99.99,n/a,n/a,-99.99,Henriksen +1-Wire,2013-08-22 00:30:00,
2013-08-21 17:36:00,90.0,54.2,29.80,SW,220,2.1,6.2,29,-99.99,n/a,n/a,-99.99,Henriksen +1-Wire,2013-08-22 00:36:00,
2013-08-21 17:42:00,90.0,54.5,29.79,SW,236,0.8,5.4,29,-99.99,n/a,n/a,-99.99,Henriksen +1-Wire,2013-08-22 00:42:00,
2013-08-21 17:48:00,90.2,54.7,29.79,SW,232,3.0,7.0,29,-99.99,n/a,n/a,-99.99,Henriksen +1-Wire,2013-08-22 00:48:00,
2013-08-21 17:54:00,90.0,54.3,29.78,SW,219,3.0,7.8,29,-99.99,n/a,n/a,-99.99,Henriksen +1-Wire,2013-08-22 00:54:00,
2013-08-21 18:00:00,89.8,53.5,29.78,SW,224,3.3,7.8,28,-99.99,n/a,n/a,-99.99,Henriksen +1-Wire,2013-08-22 01:00:00,
2013-08-21 18:06:00,89.8,52.8,29.79,SW,227,3.1,7.8,27,-99.99,n/a,n/a,-99.99,Henriksen +1-Wire,2013-08-22 01:06:00,
2013-08-21 18:12:00,89.5,52.1,29.79,WSW,244,4.3,8.5,27,-99.99,n/a,n/a,-99.99,Henriksen +1-Wire,2013-08-22 01:12:00,
2013-08-21 18:18:00,89.1,51.4,29.79,SW,235,3.8,8.5,26,-99.99,n/a,n/a,-99.99,Henriksen +1-Wire,2013-08-22 01:18:00,
2013-08-21 18:24:00,88.9,50.7,29.80,SW,228,2.1,6.9,26,-99.99,n/a,n/a,-99.99,Henriksen +1-Wire,2013-08-22 01:24:00,
2013-08-21 18:30:00,88.7,50.0,29.78,SW,221,1.6,5.4,25,-99.99,n/a,n/a,-99.99,Henriksen +1-Wire,2013-08-22 01:30:00,
2013-08-21 18:36:00,88.3,49.8,29.79,SW,218,2.0,5.4,26,-99.99,n/a,n/a,-99.99,Henriksen +1-Wire,2013-08-22 01:36:00,
2013-08-21 18:42:00,88.1,50.2,29.79,SW,224,1.0,5.4,26,-99.99,n/a,n/a,-99.99,Henriksen +1-Wire,2013-08-22 01:42:00,
2013-08-21 18:48:00,87.9,50.3,29.78,SW,232,1.0,7.0,26,-99.99,n/a,n/a,-99.99,Henriksen +1-Wire,2013-08-22 01:48:00,
2013-08-21 18:54:00,87.6,50.0,29.79,SW,214,1.0,6.9,26,-99.99,n/a,n/a,-99.99,Henriksen +1-Wire,2013-08-22 01:54:00,
2013-08-21 19:00:00,87.3,49.7,29.79,SW,221,1.0,4.6,26,-99.99,n/a,n/a,-99.99,Henriksen +1-Wire,2013-08-22 02:00:00,
2013-08-21 19:06:00,86.9,49.7,29.78,SW,231,0.9,4.6,27,-99.99,n/a,n/a,-99.99,Henriksen +1-Wire,2013-08-22 02:06:00,
2013-08-21 19:12:00,86.4,49.6,29.77,South,185,0.7,4.7,27,-99.99,n/a,n/a,-99.99,Henriksen +1-Wire,2013-08-22 02:12:00,
2013-08-21 19:18:00,85.9,49.6,29.78,South,189,1.5,5.4,27,-99.99,n/a,n/a,-99.99,Henriksen +1-Wire,2013-08-22 02:18:00,
2013-08-21 19:24:00,85.6,49.7,29.78,SSW,213,1.8,6.2,28,-99.99,n/a,n/a,-99.99,Henriksen +1-Wire,2013-08-22 02:24:00,
2013-08-21 19:30:00,85.2,49.9,29.77,SW,215,2.2,5.4,29,-99.99,n/a,n/a,-99.99,Henriksen +1-Wire,2013-08-22 02:30:00,
2013-08-21 19:36:00,84.6,50.9,29.77,SSW,211,2.9,6.8,30,-99.99,n/a,n/a,-99.99,Henriksen +1-Wire,2013-08-22 02:36:00,
2013-08-21 19:42:00,83.9,52.3,29.77,SSW,205,3.2,6.2,33,-99.99,n/a,n/a,-99.99,Henriksen +1-Wire,2013-08-22 02:42:00,
2013-08-21 19:48:00,83.2,52.9,29.77,SSW,212,3.3,7.0,34,-99.99,n/a,n/a,-99.99,Henriksen +1-Wire,2013-08-22 02:48:00,
2013-08-21 19:54:00,82.2,53.4,29.77,South,189,2.1,7.0,36,-99.99,n/a,n/a,-99.99,Henriksen +1-Wire,2013-08-22 02:54:00,
2013-08-21 20:00:00,81.5,53.8,29.77,South,185,1.4,5.4,37,-99.99,n/a,n/a,-99.99,Henriksen +1-Wire,2013-08-22 03:00:00,
2013-08-21 20:06:00,80.4,54.4,29.77,South,180,0.8,3.9,40,-99.99,n/a,n/a,-99.99,Henriksen +1-Wire,2013-08-22 03:06:00,
2013-08-21 20:12:00,79.4,55.1,29.77,South,187,1.3,4.6,42,-99.99,n/a,n/a,-99.99,Henriksen +1-Wire,2013-08-22 03:12:00,
2013-08-21 20:18:00,78.7,56.1,29.77,South,191,2.4,5.4,45,-99.99,n/a,n/a,-99.99,Henriksen +1-Wire,2013-08-22 03:18:00,
2013-08-21 20:24:00,78.0,56.6,29.76,SW,218,1.7,8.5,47,-99.99,n/a,n/a,-99.99,Henriksen +1-Wire,2013-08-22 03:24:00,
2013-08-21 20:30:00,77.2,57.0,29.76,SSW,212,1.8,8.5,49,-99.99,n/a,n/a,-99.99,Henriksen +1-Wire,2013-08-22 03:30:00,
2013-08-21 20:36:00,76.5,57.2,29.75,SE,142,2.8,8.5,50,-99.99,n/a,n/a,-99.99,Henriksen +1-Wire,2013-08-22 03:36:00,
2013-08-21 20:42:00,75.8,57.3,29.75,South,182,1.7,8.5,52,-99.99,n/a,n/a,-99.99,Henriksen +1-Wire,2013-08-22 03:42:00,
2013-08-21 20:48:00,75.0,57.4,29.76,South,184,0.9,6.2,53,-99.99,n/a,n/a,-99.99,Henriksen +1-Wire,2013-08-22 03:48:00,
2013-08-21 20:54:00,74.4,57.4,29.77,South,190,2.1,4.7,54,-99.99,n/a,n/a,-99.99,Henriksen +1-Wire,2013-08-22 03:54:00,
2013-08-21 21:00:00,73.9,57.6,29.77,South,191,1.2,5.8,56,-99.99,n/a,n/a,-99.99,Henriksen +1-Wire,2013-08-22 04:00:00,
2013-08-21 21:06:00,73.4,57.6,29.78,SSW,212,1.3,4.7,57,-99.99,n/a,n/a,-99.99,Henriksen +1-Wire,2013-08-22 04:06:00,
2013-08-21 21:12:00,72.8,57.5,29.78,South,189,1.9,5.4,58,-99.99,n/a,n/a,-99.99,Henriksen +1-Wire,2013-08-22 04:12:00,
2013-08-21 21:18:00,72.2,57.4,29.78,SSW,193,2.8,5.4,59,-99.99,n/a,n/a,-99.99,Henriksen +1-Wire,2013-08-22 04:18:00,
2013-08-21 21:24:00,71.9,57.4,29.80,South,175,1.2,5.4,59,-99.99,n/a,n/a,-99.99,Henriksen +1-Wire,2013-08-22 04:24:00,
2013-08-21 21:30:00,71.5,57.3,29.81,South,184,2.9,6.0,60,-99.99,n/a,n/a,-99.99,Henriksen +1-Wire,2013-08-22 04:30:00,
2013-08-21 21:36:00,71.1,57.1,29.81,SE,145,0.7,6.0,60,-99.99,n/a,n/a,-99.99,Henriksen +1-Wire,2013-08-22 04:36:00,
2013-08-21 21:42:00,70.7,57.0,29.81,SE,132,1.9,4.7,61,-99.99,n/a,n/a,-99.99,Henriksen +1-Wire,2013-08-22 04:42:00,
2013-08-21 21:48:00,70.3,56.9,29.81,SE,145,2.6,7.0,62,-99.99,n/a,n/a,-99.99,Henriksen +1-Wire,2013-08-22 04:48:00,
2013-08-21 21:54:00,69.8,56.6,29.82,SE,132,1.6,7.8,62,-99.99,n/a,n/a,-99.99,Henriksen +1-Wire,2013-08-22 04:54:00,
2013-08-21 22:00:00,69.4,56.5,29.82,SE,133,2.1,5.4,63,-99.99,n/a,n/a,-99.99,Henriksen +1-Wire,2013-08-22 05:00:00,
2013-08-21 22:06:00,69.0,56.2,29.82,SE,142,2.3,6.0,63,-99.99,n/a,n/a,-99.99,Henriksen +1-Wire,2013-08-22 05:06:00,
2013-08-21 22:12:00,68.6,56.0,29.83,SSE,155,3.4,7.7,63,-99.99,n/a,n/a,-99.99,Henriksen +1-Wire,2013-08-22 05:12:00,
2013-08-21 22:18:00,68.3,55.8,29.82,SSE,148,2.9,7.7,63,-99.99,n/a,n/a,-99.99,Henriksen +1-Wire,2013-08-22 05:18:00,
2013-08-21 22:24:00,68.0,55.5,29.82,SE,140,1.3,6.2,63,-99.99,n/a,n/a,-99.99,Henriksen +1-Wire,2013-08-22 05:24:00,
2013-08-21 22:30:00,67.6,55.2,29.82,SE,138,2.2,7.0,64,-99.99,n/a,n/a,-99.99,Henriksen +1-Wire,2013-08-22 05:30:00,
2013-08-21 22:36:00,67.3,55.0,29.83,SE,143,3.1,6.2,64,-99.99,n/a,n/a,-99.99,Henriksen +1-Wire,2013-08-22 05:36:00,
2013-08-21 22:42:00,67.0,55.0,29.83,SE,145,2.9,6.2,64,-99.99,n/a,n/a,-99.99,Henriksen +1-Wire,2013-08-22 05:42:00,
2013-08-21 22:48:00,66.8,55.0,29.83,SE,139,4.1,7.8,65,-99.99,n/a,n/a,-99.99,Henriksen +1-Wire,2013-08-22 05:48:00,
2013-08-21 22:54:00,66.6,55.1,29.84,SE,133,1.1,7.8,66,-99.99,n/a,n/a,-99.99,Henriksen +1-Wire,2013-08-22 05:54:00,
2013-08-21 23:00:00,66.3,55.1,29.83,SE,136,1.7,6.2,66,-99.99,n/a,n/a,-99.99,Henriksen +1-Wire,2013-08-22 06:00:00,
2013-08-21 23:06:00,66.1,55.1,29.83,SE,135,2.6,5.4,67,-99.99,n/a,n/a,-99.99,Henriksen +1-Wire,2013-08-22 06:06:00,
2013-08-21 23:12:00,65.8,55.1,29.84,SE,139,2.9,6.7,68,-99.99,n/a,n/a,-99.99,Henriksen +1-Wire,2013-08-22 06:12:00,
2013-08-21 23:18:00,65.5,55.0,29.83,SE,135,2.1,6.9,68,-99.99,n/a,n/a,-99.99,Henriksen +1-Wire,2013-08-22 06:18:00,
2013-08-21 23:24:00,65.3,55.0,29.83,SE,140,2.9,5.4,69,-99.99,n/a,n/a,-99.99,Henriksen +1-Wire,2013-08-22 06:24:00,
2013-08-21 23:30:00,65.0,54.9,29.83,SE,140,2.3,6.2,69,-99.99,n/a,n/a,-99.99,Henriksen +1-Wire,2013-08-22 06:30:00,
2013-08-21 23:36:00,64.8,54.9,29.82,SE,128,3.4,6.9,69,-99.99,n/a,n/a,-99.99,Henriksen +1-Wire,2013-08-22 06:36:00,
2013-08-21 23:42:00,64.7,54.8,29.83,SE,135,2.2,6.5,70,-99.99,n/a,n/a,-99.99,Henriksen +1-Wire,2013-08-22 06:42:00,
2013-08-21 23:48:00,64.5,54.8,29.83,SE,138,2.6,6.2,70,-99.99,n/a,n/a,-99.99,Henriksen +1-Wire,2013-08-22 06:48:00,
2013-08-21 23:54:00,64.4,54.8,29.83,SE,136,4.3,7.8,70,-99.99,n/a,n/a,-99.99,Henriksen +1-Wire,2013-08-22 06:54:00,